Location: Unspecified
(0.0000°N, 0.0000°E)
Time: 19:34:11
(UTC+00:00)

Vanguard 1 - Pass Details

Date: 20 April 2026
Orbit: 654 x 3817 km, 34.2° (Epoch: 18 May)

Event Time Altitude Azimuth Distance (km) Brightness Sun altitude
Rises 01:55:23 0° 311° (NW) 7,917 14.5 -58.9°
Reaches altitude 10° 02:04:49 10° 329° (NNW) 6,609 14.1 -56.7°
Maximum altitude 02:16:26 17° 3° (N) 5,290 13.8 -54.0°
Drops below altitude 10° 02:25:29 10° 39° (NE) 5,056 14.0 -51.9°
Sets 02:30:55 0° 59° (ENE) 5,464 14.5 -50.6°
